Wind_Speed
31 35 29 24 39 39 41 29 29 27 36 20 22 16 15 16 17 18 19 19 19 24 28 31 31 29 27 28 27 26 26 26 28 31 33 35 37 40 42 41 42 44 43 42
31 4 23 21 29 34 33 33 25 18 31 26 22 18 14 12 14 14 14 15 16 17 21 26 26 26 27 28 29 29 28 29 31 33 34 37 40 40 40 41 42 41 41 42
6 17 21 15 28 31 38 32 30 31 29 28 24 19 14 9 9 10 12 12 12 12 13 17 22 24 26 28 29 29 29 30 32 34 36 38 38 39 40 41 40 39 40 42
6 9 3 1 16 17 10 12 10 19 21 20 20 18 12 7 6 7 8 12 14 13 14 17 21 24 25 25 26 27 29 31 33 35 36 36 37 38 39 39 38 39 40 43
5 4 2 8 10 22 23 21 18 16 18 19 19 15 12 9 8 7 5 7 12 16 17 18 18 20 22 23 24 26 29 31 33 34 35 36 36 37 38 37 37 39 42 45
5 3 2 4 6 11 14 12 19 15 18 18 16 18 12 9 9 9 11 12 14 16 17 18 19 19 19 21 24 27 29 31 32 33 33 34 35 35 36 37 38 41 43 45
8 3 1 5 5 10 9 5 20 15 13 14 15 14 13 12 13 14 15 15 16 17 17 16 16 18 20 22 25 27 28 29 30 31 32 33 33 34 35 36 39 41 43 43
8 3 5 9 7 7 4 4 12 17 15 13 14 14 14 13 13 14 14 14 14 14 14 15 16 18 21 23 24 25 26 28 29 31 31 31 32 32 35 39 41 42 43 44
11 5 4 4 5 9 9 7 7 10 13 14 13 14 14 13 14 13 13 13 13 13 13 15 18 20 20 20 22 24 26 27 28 29 29 30 32 34 36 39 41 42 44 46
15 13 12 11 9 9 8 7 5 5 6 7 10 11 11 12 12 12 11 11 12 13 15 16 16 16 18 20 23 24 26 26 26 27 29 31 34 36 38 40 41 43 45 46
22 15 15 14 11 11 4 3 5 8 8 8 9 10 11 10 10 9 10 11 13 14 14 14 15 17 20 22 23 23 24 25 26 28 29 31 33 36 37 38 42 45 47 48
8 8 13 3 14 17 6 4 5 7 7 10 11 9 9 9 8 9 11 12 12 10 11 14 17 19 21 21 22 23 24 26 27 28 30 32 33 32 35 39 40 42 45 48
9 6 13 10 7 9 10 10 8 8 8 7 8 9 8 8 9 10 9 9 9 11 14 17 19 19 20 21 23 23 24 25 27 29 31 32 34 37 38 36 39 42 45 46
14 12 12 12 13 14 16 15 12 11 11 10 9 8 8 9 9 9 8 9 11 14 16 17 18 20 20 21 21 22 24 26 28 30 31 33 36 37 40 42 44 45 45 44
17 13 10 11 11 12 13 14 12 11 10 9 9 8 8 8 8 7 8 11 13 15 17 18 18 19 19 20 22 23 25 27 28 30 33 35 37 39 41 43 45 47 45 40
14 14 13 13 11 12 13 13 11 10 11 10 9 8 8 7 6 8 11 14 15 16 16 16 17 18 19 20 22 24 26 28 30 32 33 35 37 40 43 45 46 45 40 36
13 13 14 15 13 12 12 10 11 12 11 10 8 8 7 6 8 11 14 14 15 14 15 16 17 18 19 21 23 25 27 30 31 33 35 37 40 42 45 46 44 39 34 32
12 12 11 10 8 12 13 10 11 12 11 9 8 6 6 8 11 13 13 13 14 15 16 16 17 18 20 22 25 27 29 31 32 34 36 39 42 44 45 42 37 34 31 29
16 15 17 17 14 11 12 11 13 12 10 8 7 7 8 10 12 11 12 13 14 14 15 16 19 21 23 25 28 30 30 32 34 36 39 42 44 43 39 35 33 31 30 29
21 18 16 16 15 12 12 14 13 11 9 9 8 8 10 10 10 10 12 13 14 16 17 20 22 24 26 29 30 30 32 34 36 39 42 44 42 36 33 32 32 30 29 28
23 19 18 18 15 15 15 13 12 11 11 10 9 9 9 8 9 11 13 15 17 18 20 22 25 27 28 28 30 31 34 37 40 42 43 39 34 34 33 32 30 29 27 26
22 20 20 17 15 15 16 16 15 14 12 9 8 8 8 9 12 14 16 17 18 20 22 25 26 27 28 30 31 34 37 40 42 41 36 35 35 33 31 30 29 27 26 25
22 22 17 12 14 15 16 18 16 13 9 8 7 7 9 12 14 16 17 18 20 22 25 26 27 29 30 31 34 36 40 41 37 34 35 35 33 32 31 29 27 26 25 24
23 20 18 19 18 19 18 15 12 10 7 6 7 9 12 14 15 16 17 20 22 25 26 28 29 30 31 33 36 39 39 35 34 35 35 34 32 31 29 28 26 25 24 22
22 21 20 19 20 20 16 13 11 8 6 7 9 11 13 14 15 17 19 22 25 26 28 29 30 31 33 36 39 37 35 34 35 35 33 31 29 28 27 26 24 22 20 16
22 21 21 21 19 16 13 11 8 7 7 9 11 13 14 15 17 19 22 24 26 28 29 30 31 32 36 37 35 33 34 35 35 33 32 30 28 26 24 22 20 18 15 11
25 23 22 22 18 15 13 10 8 7 8 10 13 14 15 16 18 21 24 26 27 28 29 31 33 35 36 34 33 34 35 35 34 32 29 27 25 23 20 18 16 13 9 4
Wind_Direction
270 263 255 214 211 211 215 208 207 241 241 225 190 181 177 175 179 186 192 198 203 208 209 212 218 224 231 238 246 255 266 275 285 291 295 298 301 304 305 306 308 309 310 310
295 172 167 178 199 188 198 199 229 247 218 216 175 165 157 159 174 178 187 197 201 203 213 222 225 231 238 244 251 257 266 275 284 290 295 299 301 302 303 306 308 309 309 309
355 122 138 158 182 198 212 234 222 206 203 173 170 170 158 148 144 169 183 185 189 200 215 218 223 232 240 246 252 258 267 277 285 292 296 297 299 301 304 307 308 308 309 310
40 129 82 72 197 198 175 175 181 200 179 180 180 177 175 169 160 160 183 196 201 209 219 222 226 235 245 253 256 262 272 283 289 291 293 296 299 303 307 308 307 308 310 312
10 353 72 101 136 194 206 212 214 193 176 171 186 197 205 197 196 192 206 215 222 226 230 233 240 246 250 252 260 273 281 285 289 292 294 298 303 306 306 307 308 309 312 315
334 19 50 90 138 174 195 211 208 203 204 190 179 197 205 216 228 229 223 219 224 227 232 237 247 249 254 263 271 279 284 287 290 293 298 302 305 306 307 307 310 314 316 315
248 328 289 142 103 158 166 229 206 204 204 210 222 235 246 253 244 229 219 223 227 231 238 239 245 254 266 275 281 284 286 289 293 298 302 304 306 306 305 310 313 314 315 316
218 250 273 191 145 169 159 148 194 197 193 209 219 232 243 246 229 219 222 225 223 223 230 243 259 271 276 279 282 286 291 296 299 302 304 303 304 308 312 313 314 315 316 318
199 230 217 175 177 178 145 136 117 146 180 191 210 227 236 235 218 210 207 212 221 235 252 263 269 274 278 282 288 293 297 300 301 302 302 305 310 312 313 315 315 317 319 321
227 239 226 197 185 177 179 173 165 153 174 199 218 219 208 197 195 198 211 224 238 253 263 270 275 281 286 291 295 299 301 301 301 303 308 312 313 315 317 316 317 319 321 322
230 229 206 197 182 174 170 182 200 200 193 197 200 198 192 196 201 214 231 249 261 269 274 279 285 292 296 299 301 300 301 303 305 308 310 312 314 315 316 318 321 322 322 324
270 224 205 253 217 217 231 248 211 207 218 196 182 191 195 202 218 242 259 267 271 275 283 292 297 300 301 301 301 302 303 305 307 309 311 313 314 315 317 320 321 320 322 323
231 209 208 201 180 202 246 258 244 215 190 190 194 198 214 236 256 271 274 273 282 293 298 299 298 300 303 302 300 302 305 307 308 311 312 314 316 318 320 320 320 322 322 323
214 216 210 206 224 235 237 234 222 204 194 198 210 228 244 261 271 270 268 278 291 296 299 304 305 301 299 299 302 304 306 308 310 313 315 317 319 322 321 322 324 324 325 325
200 208 209 217 233 226 216 215 210 204 210 220 232 247 264 269 265 267 281 293 301 308 306 300 297 298 301 303 305 307 308 310 313 315 318 321 322 321 322 323 323 324 326 325
213 221 220 219 209 200 203 206 205 217 225 233 248 263 268 264 266 283 296 303 305 301 297 298 304 304 303 304 306 308 311 315 317 320 321 321 320 321 322 322 323 326 328 327
210 212 211 205 210 210 203 205 211 220 229 239 256 265 254 256 281 294 298 300 299 300 306 307 304 303 305 307 309 314 317 319 320 320 321 322 322 322 322 323 326 329 331 329
200 196 199 231 238 231 227 224 226 229 231 244 253 237 249 276 289 294 299 300 304 306 304 303 305 307 310 315 317 318 319 319 319 320 321 321 321 322 323 325 328 330 330 329
222 218 211 206 209 210 222 232 222 223 231 236 222 241 269 283 291 296 299 303 303 304 305 309 312 315 318 318 317 318 318 319 320 321 320 321 322 322 323 327 329 330 329 329
219 221 216 210 207 216 218 213 214 218 216 210 229 258 275 283 289 297 301 303 306 310 315 317 317 318 318 318 318 319 319 320 320 320 321 321 322 324 326 328 328 327 326 328
214 219 215 206 211 206 199 206 211 205 205 220 245 263 271 284 296 301 306 310 315 317 317 317 319 319 318 318 319 320 320 320 320 320 320 322 324 325 326 326 326 325 325 326
204 204 200 201 204 207 205 200 197 200 215 235 249 263 285 297 305 310 312 314 314 315 318 319 319 319 321 321 321 320 319 319 319 320 321 323 324 325 325 324 323 322 323 323
189 192 186 198 204 201 196 192 196 210 225 240 264 289 301 308 309 309 310 312 316 320 321 321 322 323 322 321 320 319 318 319 319 321 323 325 324 323 322 322 321 321 322 321
186 179 195 196 193 187 190 196 207 218 230 255 283 301 307 304 304 308 313 317 321 323 322 322 322 322 321 319 318 318 318 320 322 323 324 323 321 320 320 320 320 319 318 320
187 195 190 189 189 187 194 204 212 220 245 277 294 298 299 302 307 312 317 321 323 322 320 321 321 320 319 319 319 320 322 322 322 322 323 321 320 320 319 318 318 316 316 316
188 183 182 185 188 195 202 205 213 234 264 285 296 301 303 306 312 318 321 321 319 318 319 319 319 319 319 320 321 322 322 322 322 322 321 322 321 320 320 320 317 316 316 317
186 188 192 192 194 197 200 207 225 253 283 299 302 304 305 310 315 318 318 317 317 318 319 318 319 320 320 321 322 323 322 322 322 323 324 323 323 324 324 322 321 318 318 318
Height
2963 2963 2967 2968 2972 2978 2985 2989 2991 2990 2998 2991 2997 2999 3002 3005 3008 3012 3015 3019 3024 3028 3034 3038 3043 3046 3048 3049 3050 3050 3050 3049 3047 3045 3042 3038 3034 3029 3024 3019 3014 3008 3002 2996
2954 2948 2954 2961 2968 2977 2981 2985 2988 2994 2994 2990 2997 3000 3002 3005 3008 3011 3014 3019 3023 3027 3031 3036 3039 3042 3043 3044 3045 3045 3044 3043 3041 3038 3034 3030 3026 3022 3017 3012 3006 3000 2994 2987
2954 2954 2959 2965 2964 2969 2972 2978 2986 2990 2988 2991 2995 2999 3002 3004 3008 3011 3014 3017 3020 3024 3028 3031 3034 3036 3037 3038 3038 3039 3038 3036 3034 3030 3026 3023 3018 3014 3009 3003 2998 2992 2986 2979
2958 2958 2963 2963 2963 2966 2972 2979 2982 2988 2989 2992 2996 2999 3001 3004 3007 3010 3013 3016 3019 3022 3025 3027 3029 3030 3032 3033 3033 3033 3031 3029 3026 3023 3019 3015 3010 3006 3001 2995 2989 2984 2978 2970
2963 2961 2964 2965 2967 2970 2973 2979 2983 2986 2987 2991 2995 2998 3000 3002 3004 3007 3011 3014 3017 3019 3021 3023 3024 3026 3026 3027 3027 3026 3025 3022 3019 3015 3011 3007 3003 2998 2992 2987 2982 2976 2969 2962
2967 2966 2966 2967 2968 2971 2974 2976 2978 2981 2985 2989 2993 2995 2997 3000 3002 3005 3008 3010 3013 3015 3017 3018 3020 3021 3021 3022 3021 3020 3018 3014 3011 3008 3005 3000 2995 2990 2985 2979 2974 2967 2961 2953
2969 2968 2966 2967 2969 2971 2975 2978 2975 2979 2983 2986 2989 2992 2994 2997 2999 3001 3004 3006 3009 3011 3013 3014 3015 3016 3016 3016 3015 3013 3010 3007 3004 3001 2997 2992 2987 2983 2977 2971 2966 2959 2953 2946
2969 2969 2968 2968 2970 2972 2973 2972 2973 2976 2980 2983 2987 2989 2991 2993 2995 2998 3000 3003 3005 3007 3009 3010 3011 3011 3011 3010 3008 3006 3004 3001 2997 2993 2989 2985 2980 2975 2969 2962 2957 2951 2944 2937
2965 2965 2965 2967 2969 2971 2973 2974 2975 2977 2980 2982 2985 2987 2989 2991 2993 2996 2998 3001 3003 3005 3006 3007 3006 3006 3005 3004 3002 3000 2997 2993 2990 2986 2981 2976 2971 2966 2962 2956 2949 2942 2934 2926
2962 2962 2964 2966 2968 2970 2972 2974 2976 2977 2979 2981 2983 2985 2987 2990 2992 2994 2997 2999 3000 3001 3001 3001 3000 3000 2999 2998 2995 2993 2990 2986 2982 2978 2974 2969 2964 2959 2954 2947 2941 2933 2925 2917
2958 2960 2962 2964 2966 2969 2971 2972 2974 2976 2978 2980 2982 2983 2986 2988 2991 2993 2995 2996 2996 2997 2997 2997 2996 2995 2993 2991 2988 2986 2982 2979 2975 2972 2968 2964 2959 2953 2947 2941 2932 2922 2914 2907
2956 2958 2961 2963 2964 2968 2970 2971 2973 2975 2977 2978 2980 2983 2985 2988 2990 2991 2992 2992 2992 2992 2992 2991 2990 2989 2987 2985 2982 2979 2976 2973 2970 2966 2962 2957 2952 2949 2941 2933 2926 2918 2910 2902
2954 2956 2958 2961 2963 2966 2968 2970 2971 2973 2975 2977 2979 2981 2983 2985 2987 2987 2987 2988 2988 2988 2987 2986 2985 2983 2981 2979 2976 2973 2971 2968 2964 2960 2955 2951 2946 2939 2932 2929 2920 2912 2903 2894
2951 2954 2956 2958 2960 2963 2964 2967 2969 2971 2973 2976 2978 2980 2982 2982 2983 2984 2984 2985 2985 2985 2983 2981 2979 2977 2975 2973 2971 2968 2965 2962 2958 2954 2949 2944 2937 2931 2924 2916 2909 2903 2895 2886
2948 2951 2954 2956 2958 2960 2962 2965 2967 2970 2972 2974 2976 2977 2979 2979 2980 2981 2981 2981 2981 2980 2978 2976 2975 2973 2971 2968 2966 2963 2960 2956 2952 2947 2942 2936 2930 2924 2916 2910 2903 2895 2886 2878
2947 2949 2951 2953 2955 2958 2960 2963 2965 2968 2970 2972 2973 2975 2975 2976 2977 2978 2978 2977 2976 2975 2974 2972 2970 2968 2966 2964 2961 2958 2954 2950 2946 2941 2936 2930 2923 2916 2910 2903 2895 2886 2878 2870
2944 2946 2948 2951 2954 2956 2959 2961 2963 2965 2967 2969 2971 2972 2973 2974 2975 2975 2974 2973 2972 2971 2969 2968 2966 2964 2962 2959 2956 2952 2948 2944 2939 2934 2928 2922 2915 2909 2901 2893 2885 2878 2872 2865
2941 2944 2947 2950 2951 2954 2956 2958 2961 2963 2965 2967 2969 2970 2971 2971 2971 2971 2970 2969 2968 2967 2966 2964 2962 2960 2957 2953 2950 2946 2942 2938 2933 2928 2922 2915 2909 2901 2893 2885 2878 2872 2867 2861
2938 2940 2943 2946 2949 2952 2954 2956 2958 2961 2963 2965 2966 2968 2968 2968 2968 2967 2967 2966 2965 2964 2962 2960 2957 2954 2951 2948 2944 2940 2936 2931 2926 2920 2914 2907 2900 2893 2885 2879 2873 2867 2861 2856
2934 2937 2940 2943 2946 2949 2952 2954 2957 2959 2961 2963 2964 2965 2965 2965 2965 2965 2964 2963 2962 2960 2957 2954 2952 2949 2946 2943 2939 2934 2929 2924 2918 2912 2905 2898 2891 2885 2878 2872 2867 2862 2856 2851
2930 2934 2938 2941 2944 2946 2949 2952 2955 2958 2960 2961 2962 2963 2963 2963 2963 2962 2960 2959 2957 2955 2953 2950 2948 2945 2940 2936 2931 2926 2921 2916 2910 2904 2897 2890 2884 2877 2872 2867 2862 2857 2852 2847
2927 2932 2935 2938 2942 2944 2947 2950 2953 2956 2958 2959 2960 2960 2960 2960 2959 2958 2956 2955 2953 2951 2949 2945 2942 2938 2934 2930 2925 2920 2914 2909 2902 2895 2889 2883 2876 2870 2865 2860 2856 2851 2847 2842
2924 2929 2933 2937 2940 2943 2946 2949 2952 2954 2955 2956 2957 2957 2957 2956 2955 2954 2953 2951 2949 2946 2943 2939 2935 2932 2928 2923 2918 2913 2907 2900 2893 2887 2881 2875 2869 2863 2859 2854 2850 2846 2842 2838
2923 2927 2931 2934 2938 2941 2945 2948 2950 2951 2953 2954 2954 2954 2954 2953 2952 2951 2948 2946 2943 2940 2937 2933 2929 2925 2921 2916 2911 2904 2897 2891 2885 2879 2873 2867 2862 2857 2853 2849 2845 2840 2837 2833
2923 2926 2930 2933 2937 2940 2943 2946 2948 2949 2950 2951 2951 2951 2950 2949 2948 2946 2943 2940 2937 2934 2931 2928 2924 2919 2914 2909 2902 2895 2889 2883 2877 2872 2866 2861 2856 2852 2847 2843 2839 2835 2832 2829
2921 2925 2929 2933 2936 2939 2941 2943 2945 2947 2948 2948 2948 2947 2946 2945 2943 2940 2938 2936 2933 2929 2926 2922 2917 2912 2907 2901 2894 2888 2881 2876 2871 2865 2860 2855 2850 2845 2841 2837 2833 2830 2828 2826
2920 2924 2928 2931 2934 2936 2939 2941 2943 2944 2945 2945 2944 2943 2941 2939 2938 2936 2933 2930 2927 2924 2920 2915 2910 2904 2898 2892 2886 2880 2875 2869 2863 2858 2854 2849 2844 2840 2836 2832 2829 2827 2825 2824